Weather History for PAGK - February, 2014

Change the Weather History Date:

Sunday, February 9, 2014

  Actual Average Record
Temperature  
Mean Temperature -10 °F -  
Max Temperature 1 °F 13 °F 45 °F (1968)
Min Temperature -22 °F -3 °F -46 °F (1979)
Degree Days  
Heating Degree Days 76    
Moisture  
Dew Point -15 °F    
Average Humidity 78    
Maximum Humidity 87    
Minimum Humidity 65    
Precipitation  
Precipitation 0.00 in - - ()
Sea Level Pressure  
Sea Level Pressure 30.26 in    
Wind  
Wind Speed 4 mph (NW)    
Max Wind Speed 10 mph    
Max Gust Speed -    
Visibility 10 miles    
Events      
Averages and records for this station are not official NWS values.
T = Trace of Precipitation, MM = Missing Value Source: NWS Daily Summary

Daily Weather History Graph

Daily Weather History Graph

Search for Another Location

Airport or City:

Trip Planner

Search our weather history database for the weather conditions in past years. The results will help you decide how hot, cold, wet, or windy it might be!

Date:

Astronomy

Feb. 09, 2014 Rise Set
Actual Time 8:45 AM AKST 5:07 PM AKST
Civil Twilight 7:56 AM AKST 5:56 PM AKST
Nautical Twilight 7:03 AM AKST 6:50 PM AKST
Astronomical Twilight 6:11 AM AKST 7:41 PM AKST
Moon 12:17 PM AKST (2/9) 5:35 AM AKST (2/9)
Length of Visible Light 10h 00m
Length of Day
8h 22m
Waxing Gibbous, 78% of the Moon is Illuminated
Feb 9
Waxing Gibbous
Feb 14
Full
Feb 22
Last Quarter
Feb 28
New
Mar 8
First Quarter

Hourly Weather History & Observations

Time (AKST) Temp. Windchill Dew Point Humidity Pressure Visibility Wind Dir Wind Speed Gust Speed Precip Events Conditions
12:53 AM -2.0 °F -13.9 °F -7.1 °F 79% 30.35 in 10.0 mi WNW 5.8 mph - N/A   Clear
1:53 AM -2.0 °F -16.6 °F -6.0 °F 83% 30.33 in 10.0 mi NW 8.1 mph - N/A   Clear
2:53 AM -0.0 °F -16.3 °F -5.1 °F 79% 30.32 in 10.0 mi NW 10.4 mph - N/A   Clear
3:53 AM -0.9 °F -11.0 °F -6.0 °F 79% 30.30 in 10.0 mi NW 4.6 mph - N/A   Clear
4:53 AM -5.1 °F -20.4 °F -11.0 °F 76% 30.32 in 10.0 mi NNW 8.1 mph - N/A   Clear
5:53 AM -9.0 °F - -13.0 °F 83% 30.31 in 10.0 mi Calm Calm - N/A   Clear
6:53 AM -14.1 °F - -18.9 °F 79% 30.31 in 10.0 mi Calm Calm - N/A   Clear
7:53 AM -15.0 °F - -20.0 °F 78% 30.31 in 10.0 mi Calm Calm - N/A   Clear
8:53 AM -18.0 °F - -23.1 °F 78% 30.32 in 10.0 mi Calm Calm - N/A   Clear
9:53 AM -18.9 °F - -24.0 °F 78% 30.30 in 10.0 mi Calm Calm - N/A   Clear
10:53 AM -9.9 °F -19.2 °F -13.0 °F 86% 30.28 in 10.0 mi ESE 3.5 mph - N/A   Clear
11:53 AM -4.0 °F -12.4 °F -9.9 °F 76% 30.26 in 10.0 mi NNE 3.5 mph - N/A   Clear
12:53 PM -0.9 °F - -6.0 °F 79% 30.25 in 10.0 mi Calm Calm - N/A   Clear
1:53 PM -2.9 °F -11.2 °F -7.1 °F 82% 30.23 in 10.0 mi South 3.5 mph - N/A   Clear
2:53 PM -0.0 °F - -5.1 °F 79% 30.21 in 10.0 mi Calm Calm - N/A   Clear
3:53 PM -2.0 °F -10.1 °F -6.0 °F 83% 30.20 in 10.0 mi SSW 3.5 mph - N/A   Clear
4:53 PM -7.1 °F -15.9 °F -9.9 °F 87% 30.22 in 10.0 mi South 3.5 mph - N/A   Clear
5:53 PM -13.0 °F - -17.0 °F 82% 30.22 in 2.5 mi Calm Calm - N/A   Clear
6:02 PM -13.0 °F - -18.0 °F 78% 30.00 in 8.0 mi Calm Calm - N/A   Clear
6:53 PM -14.1 °F - -18.9 °F 79% 30.23 in 10.0 mi Calm Calm - N/A   Overcast
7:53 PM -14.1 °F - -18.9 °F 79% 30.24 in 10.0 mi Calm Calm - N/A   Scattered Clouds
8:53 PM -18.0 °F - -23.1 °F 78% 30.26 in 10.0 mi Calm Calm - N/A   Clear
9:53 PM -18.0 °F - -23.1 °F 78% 30.26 in 10.0 mi Calm Calm - N/A   Mostly Cloudy
10:53 PM -22.0 °F -37.7 °F -27.9 °F 74% 30.27 in 10.0 mi NNE 5.8 mph - N/A   Clear
11:53 PM -22.0 °F - -27.9 °F 74% 30.27 in 10.0 mi Calm Calm - N/A   Clear